This is the latest recevied weather packets stored in our database for station/object KE5OYL. If no packets are shown the sender has not sent any weather packets the latest 1 day(s).
| Time | Temp. | Humidity | Pressure | Rain* | Wind** | Luminosity | Snow |
|---|---|---|---|---|---|---|---|
| 1778063970 | 15° C | 73% | 1011.9 hPa | 0 mm | - | 0 W/m² | - |
| 1778063667 | 15° C | 74% | 1011.4 hPa | 0 mm | - | 0 W/m² | - |
| 1778063062 | 15° C | 72% | 1011.1 hPa | 0 mm | - | 0 W/m² | - |
| 1778062759 | 15.56° C | 72% | 1011.1 hPa | 0 mm | - | 0 W/m² | - |
| 1778061851 | 15.56° C | 73% | 1010.8 hPa | 0 mm | - | 0 W/m² | - |
| 1778060036 | 15° C | 76% | 1010.7 hPa | 0 mm | - | 0 W/m² | - |
| 1778058826 | 15.56° C | 75% | 1010.8 hPa | 0 mm | - | 0 W/m² | - |
| 1778058523 | 15.56° C | 75% | 1010.7 hPa | 0 mm | - | 0 W/m² | - |
| 1778057917 | 15.56° C | 74% | 1010.6 hPa | 0 mm | - | 0 W/m² | - |
| 1778057613 | 15.56° C | 75% | 1010.7 hPa | 0 mm | - | 0 W/m² | - |
| 1778057310 | 15.56° C | 75% | 1010.5 hPa | 0 mm | - | 0 W/m² | - |
| 1778057007 | 16.11° C | 74% | 1010.6 hPa | 0 mm | - | 0 W/m² | - |
| 1778056703 | 16.11° C | 74% | 1010.4 hPa | 0 mm | - | 0 W/m² | - |
| 1778056401 | 16.11° C | 74% | 1010.5 hPa | 0 mm | - | 0 W/m² | - |
| 1778055491 | 16.11° C | 74% | 1010.2 hPa | 0 mm | - | 0 W/m² | - |
| 1778055189 | 16.11° C | 74% | 1010.1 hPa | 0 mm | - | 0 W/m² | - |
| 1778053070 | 16.67° C | 74% | 1010.3 hPa | 0 mm | - | 0 W/m² | - |
| 1778052766 | 16.67° C | 74% | 1010.1 hPa | 0 mm | - | 0 W/m² | - |
| 1778052161 | 16.67° C | 74% | 1010.3 hPa | 0 mm | - | 0 W/m² | - |
| 1778051859 | 17.22° C | 74% | 1010.4 hPa | 0 mm | - | 0 W/m² | - |
| 1778051253 | 16.67° C | 75% | 1010.2 hPa | 0 mm | - | 0 W/m² | - |
| 1778050950 | 16.67° C | 75% | 1010.2 hPa | 0 mm | - | 0 W/m² | - |
| 1778050648 | 16.67° C | 75% | 1010.3 hPa | 0 mm | - | 0 W/m² | - |
| 1778050345 | 16.67° C | 75% | 1010.2 hPa | 0 mm | - | 0 W/m² | - |
| 1778050041 | 16.67° C | 75% | 1010.4 hPa | 0 mm | - | 0 W/m² | - |
* Rain latest hour (hover to see other rain measurements)
** Current wind speed in m/s (hover to see current wind gust speed)